• Em Portugal
  • Lista de países
  • Para 7 dias
  • Temperatura da água
  • Mapas de satélite
  • Mapa do tempo
  • Widgets de tempo
  • user-avatar
    Iniciar Sessão

    Previsão horária em Afanoskovo

    Hoje, 23 Setembro, Domingo

    Tempo Temperatura Precipitação Vento Pressão Humidade
    00:00 +9°C° 0 mm 3 m/s 736 mmHg 92%
    01:00 +8°C° 0 mm 3 m/s 736 mmHg 92%
    02:00 +7°C° 0 mm 2 m/s 736 mmHg 94%
    03:00 +7°C° 0 mm 3 m/s 736 mmHg 95%
    04:00 +7°C° 0 mm 3 m/s 736 mmHg 95%
    05:00 +5°C° 0 mm 3 m/s 735 mmHg 95%
    06:00 +6°C° 0 mm 4 m/s 735 mmHg 92%
    07:00 +7°C° 0 mm 4 m/s 735 mmHg 90%
    08:00 +7°C° 0 mm 4 m/s 734 mmHg 86%
    09:00 +8°C° 0 mm 5 m/s 734 mmHg 82%
    10:00 +9°C° 0 mm 5 m/s 734 mmHg 79%
    11:00 +9°C° 0 mm 5 m/s 734 mmHg 75%
    12:00 +10°C° 0.1 mm 5 m/s 735 mmHg 73%
    13:00 +10°C° 0.1 mm 5 m/s 735 mmHg 71%
    14:00 +12°C° 0 mm 5 m/s 734 mmHg 67%
    15:00 +11°C° 0.1 mm 4 m/s 734 mmHg 69%
    16:00 +11°C° 0.1 mm 4 m/s 734 mmHg 70%
    17:00 +11°C° 0.1 mm 4 m/s 734 mmHg 72%
    18:00 +10°C° 0 mm 4 m/s 734 mmHg 75%
    19:00 +9°C° 0 mm 3 m/s 734 mmHg 79%
    20:00 +8°C° 0 mm 3 m/s 734 mmHg 83%
    21:00 +8°C° 0 mm 3 m/s 734 mmHg 85%
    22:00 +7°C° 0 mm 3 m/s 734 mmHg 87%
    23:00 +7°C° 0 mm 3 m/s 734 mmHg 89%

    Amanhã, 24 Setembro, Segunda-feira

    Tempo Temperatura Precipitação Vento Pressão Humidade
    00:00 +7°C° 0 mm 3 m/s 734 mmHg 91%
    01:00 +5°C° 0 mm 3 m/s 733 mmHg 93%
    02:00 +6°C° 0 mm 2 m/s 733 mmHg 95%
    03:00 +6°C° 0 mm 2 m/s 733 mmHg 95%
    04:00 +6°C° 0 mm 2 m/s 733 mmHg 95%
    05:00 +6°C° 0 mm 2 m/s 733 mmHg 94%
    06:00 +6°C° 0 mm 2 m/s 733 mmHg 93%
    07:00 +8°C° 0 mm 1 m/s 732 mmHg 91%
    08:00 +8°C° 0 mm 1 m/s 732 mmHg 89%
    09:00 +9°C° 0.2 mm 1 m/s 732 mmHg 87%
    10:00 +10°C° 0.2 mm 1 m/s 731 mmHg 85%
    11:00 +10°C° 0.2 mm 1 m/s 731 mmHg 83%
    12:00 +10°C° 0.5 mm 1 m/s 731 mmHg 82%
    13:00 +9°C° 0.5 mm 2 m/s 731 mmHg 82%
    14:00 +10°C° 0.5 mm 2 m/s 731 mmHg 81%
    15:00 +9°C° 0.2 mm 3 m/s 730 mmHg 83%
    16:00 +9°C° 0.2 mm 3 m/s 730 mmHg 85%
    17:00 +8°C° 0.2 mm 3 m/s 730 mmHg 87%
    18:00 +7°C° 0.2 mm 4 m/s 730 mmHg 88%
    19:00 +7°C° 0.2 mm 4 m/s 731 mmHg 89%
    20:00 +6°C° 0.2 mm 4 m/s 731 mmHg 90%
    21:00 +6°C° 0.1 mm 4 m/s 732 mmHg 89%
    22:00 +5°C° 0.1 mm 5 m/s 732 mmHg 87%
    23:00 +5°C° 0.1 mm 5 m/s 732 mmHg 86%

    Depois de amanhã, 25 Setembro, Terça-feira

    Tempo Temperatura Precipitação Vento Pressão Humidade
    00:00 +5°C° 0 mm 5 m/s 733 mmHg 87%
    01:00 +3°C° 0 mm 5 m/s 733 mmHg 87%
    02:00 +4°C° 0 mm 4 m/s 734 mmHg 88%
    03:00 +3°C° 0 mm 4 m/s 735 mmHg 88%
    04:00 +3°C° 0 mm 4 m/s 735 mmHg 88%
    05:00 +3°C° 0 mm 4 m/s 736 mmHg 89%
    06:00 +2°C° 0 mm 5 m/s 736 mmHg 85%
    07:00 +3°C° 0 mm 5 m/s 737 mmHg 82%
    08:00 +4°C° 0 mm 6 m/s 737 mmHg 79%
    09:00 +4°C° 0.1 mm 6 m/s 738 mmHg 73%
    10:00 +5°C° 0.1 mm 6 m/s 739 mmHg 68%
    11:00 +7°C° 0.1 mm 6 m/s 739 mmHg 63%
    12:00 +7°C° 0.2 mm 6 m/s 740 mmHg 61%
    13:00 +7°C° 0.2 mm 6 m/s 740 mmHg 59%
    14:00 +7°C° 0.2 mm 6 m/s 741 mmHg 58%
    15:00 +5°C° 0.1 mm 6 m/s 741 mmHg 58%
    16:00 +6°C° 0.1 mm 5 m/s 742 mmHg 58%
    17:00 +5°C° 0.1 mm 5 m/s 743 mmHg 58%
    18:00 +4°C° 0 mm 4 m/s 743 mmHg 61%
    19:00 +3°C° 0 mm 4 m/s 744 mmHg 64%
    20:00 +2°C° 0 mm 3 m/s 745 mmHg 67%
    21:00 +2°C° 0 mm 3 m/s 745 mmHg 68%
    22:00 +2°C° 0 mm 3 m/s 746 mmHg 70%
    23:00 +2°C° 0 mm 3 m/s 746 mmHg 71%

    26 Setembro, Quarta-feira

    Tempo Temperatura Precipitação Vento Pressão Humidade
    00:00 +2°C° 0 mm 3 m/s 746 mmHg 75%
    01:00 +2°C° 0 mm 3 m/s 747 mmHg 80%
    02:00 +2°C° 0 mm 3 m/s 747 mmHg 84%
    03:00 +2°C° 0 mm 3 m/s 747 mmHg 85%
    04:00 +2°C° 0 mm 3 m/s 747 mmHg 85%
    05:00 +1°C° 0 mm 3 m/s 747 mmHg 85%
    06:00 +2°C° 0 mm 3 m/s 747 mmHg 80%
    07:00 +3°C° 0 mm 4 m/s 747 mmHg 75%
    08:00 +4°C° 0 mm 4 m/s 747 mmHg 70%
    09:00 +6°C° 0 mm 5 m/s 747 mmHg 66%
    10:00 +7°C° 0 mm 5 m/s 746 mmHg 61%
    11:00 +8°C° 0 mm 6 m/s 746 mmHg 57%
    12:00 +8°C° 0.2 mm 6 m/s 745 mmHg 62%
    13:00 +8°C° 0.2 mm 6 m/s 744 mmHg 68%
    14:00 +7°C° 0.2 mm 6 m/s 743 mmHg 73%
    15:00 +5°C° 1 mm 7 m/s 742 mmHg 78%
    16:00 +5°C° 1 mm 7 m/s 741 mmHg 82%
    17:00 +4°C° 1 mm 8 m/s 740 mmHg 87%
    18:00 +4°C° 1.4 mm 8 m/s 739 mmHg 87%
    19:00 +4°C° 1.4 mm 8 m/s 738 mmHg 88%
    20:00 +4°C° 1.4 mm 8 m/s 737 mmHg 89%
    21:00 +5°C° 0.9 mm 8 m/s 736 mmHg 89%
    22:00 +5°C° 0.9 mm 8 m/s 735 mmHg 89%
    23:00 +6°C° 0.9 mm 8 m/s 734 mmHg 89%

    27 Setembro, Quinta-feira

    Tempo Temperatura Precipitação Vento Pressão Humidade
    00:00 +6°C° 1.4 mm 7 m/s 734 mmHg 91%
    01:00 +7°C° 1.4 mm 5 m/s 734 mmHg 92%
    02:00 +8°C° 1.4 mm 4 m/s 733 mmHg 93%
    03:00 +7°C° 0.4 mm 4 m/s 733 mmHg 93%
    04:00 +7°C° 0.4 mm 4 m/s 733 mmHg 92%
    05:00 +8°C° 0.4 mm 3 m/s 733 mmHg 91%
    06:00 +7°C° 0.1 mm 4 m/s 733 mmHg 90%
    07:00 +8°C° 0.1 mm 4 m/s 733 mmHg 88%
    08:00 +8°C° 0.1 mm 4 m/s 734 mmHg 86%
    09:00 +9°C° 0 mm 5 m/s 734 mmHg 78%
    10:00 +10°C° 0 mm 5 m/s 734 mmHg 69%
    11:00 +10°C° 0 mm 6 m/s 735 mmHg 61%
    12:00 +11°C° 0 mm 6 m/s 735 mmHg 56%
    13:00 +11°C° 0 mm 6 m/s 735 mmHg 52%
    14:00 +11°C° 0 mm 6 m/s 736 mmHg 48%
    15:00 +12°C° 0 mm 5 m/s 736 mmHg 53%
    16:00 +11°C° 0 mm 4 m/s 736 mmHg 57%
    17:00 +10°C° 0 mm 3 m/s 736 mmHg 62%
    18:00 +9°C° 0 mm 2 m/s 736 mmHg 66%
    19:00 +7°C° 0 mm 2 m/s 736 mmHg 70%
    20:00 +6°C° 0 mm 2 m/s 736 mmHg 73%
    21:00 +6°C° 0 mm 2 m/s 736 mmHg 76%
    22:00 +6°C° 0 mm 2 m/s 735 mmHg 80%
    23:00 +6°C° 0 mm 2 m/s 734 mmHg 83%

    28 Setembro, Sexta-feira

    Tempo Temperatura Precipitação Vento Pressão Humidade
    00:00 +6°C° 1.2 mm 4 m/s 733 mmHg 86%
    01:00 +8°C° 1.2 mm 5 m/s 731 mmHg 89%
    02:00 +9°C° 1.2 mm 7 m/s 730 mmHg 91%
    03:00 +10°C° 2 mm 7 m/s 729 mmHg 91%
    04:00 +11°C° 2 mm 7 m/s 727 mmHg 90%
    05:00 +11°C° 2 mm 8 m/s 726 mmHg 90%
    06:00 +10°C° 0.8 mm 7 m/s 727 mmHg 88%
    07:00 +8°C° 0.8 mm 7 m/s 728 mmHg 87%
    08:00 +6°C° 0.8 mm 7 m/s 729 mmHg 85%
    09:00 +6°C° 0.1 mm 7 m/s 730 mmHg 83%
    10:00 +5°C° 0.1 mm 6 m/s 732 mmHg 81%
    11:00 +6°C° 0.1 mm 5 m/s 733 mmHg 80%
    12:00 +7°C° 0 mm 5 m/s 734 mmHg 73%
    13:00 +8°C° 0 mm 5 m/s 735 mmHg 67%
    14:00 +9°C° 0 mm 5 m/s 736 mmHg 61%
    15:00 +8°C° 0.2 mm 5 m/s 737 mmHg 66%
    16:00 +7°C° 0.2 mm 5 m/s 737 mmHg 71%
    17:00 +7°C° 0.2 mm 5 m/s 738 mmHg 77%
    18:00 +5°C° 0 mm 4 m/s 739 mmHg 79%
    19:00 +4°C° 0 mm 3 m/s 740 mmHg 81%
    20:00 +3°C° 0 mm 3 m/s 741 mmHg 83%
    21:00 +3°C° 0 mm 3 m/s 741 mmHg 82%
    22:00 +3°C° 0 mm 3 m/s 742 mmHg 82%
    23:00 +2°C° 0 mm 3 m/s 742 mmHg 82%
    Mostrar mais